SCP
0 0 0 0 0 0 0 0 0 0 0 0 0 0 0 1 1 2 2 2 2 2 2 2 2 1 1 1 1 1 1 1 0 0 0 0 0 0 0 0 0 0 0 0
0 0 0 0 0 0 0 0 0 0 0 0 0 0 0 1 1 1 2 2 2 2 2 2 2 1 1 1 1 1 1 0 0 0 0 0 0 0 0 0 0 0 0 0
0 0 0 0 0 0 0 0 0 0 0 0 0 0 0 0 1 1 1 1 2 2 2 1 1 1 1 1 1 1 0 0 0 0 0 0 0 0 0 0 0 0 0 0
0 0 0 0 0 0 0 0 0 0 0 0 0 0 0 0 0 0 1 1 1 1 1 1 1 1 1 1 1 1 0 0 0 0 0 0 0 0 0 0 0 0 0 0
0 0 0 0 0 0 0 0 0 0 0 0 0 0 0 0 0 0 0 1 1 1 1 1 1 1 1 1 1 0 0 0 0 0 0 0 0 0 0 0 0 0 0 0
0 0 0 0 0 0 0 0 0 0 0 0 0 0 0 0 0 0 0 0 1 1 1 1 1 1 1 1 0 0 0 0 0 0 0 0 0 0 0 0 0 0 0 0
0 0 0 0 0 0 0 0 0 0 0 0 0 0 0 0 0 0 0 0 0 0 0 0 0 0 0 0 0 0 0 0 0 0 0 0 0 0 0 0 0 0 0 0
0 0 0 0 0 0 0 0 0 0 0 0 0 0 0 0 0 0 0 0 0 0 0 0 0 0 0 0 0 0 0 0 0 0 0 0 0 0 0 0 0 0 0 0
0 0 0 0 0 0 0 0 0 0 0 0 0 0 0 0 0 0 0 0 -0 0 0 0 0 0 0 0 0 0 0 0 0 0 0 0 0 0 0 0 0 0 0 0
0 0 0 0 0 0 0 0 0 0 0 0 0 0 0 0 0 0 0 0 0 0 0 0 0 0 0 0 0 0 0 0 0 0 0 0 0 0 0 0 0 0 0 0
0 0 0 0 0 0 0 0 0 0 0 0 0 0 0 0 0 0 0 0 0 0 0 0 0 0 0 0 0 0 0 0 0 0 0 0 0 0 0 0 0 0 0 0
0 0 0 0 0 0 0 0 0 0 0 0 0 0 0 0 0 0 0 0 0 0 0 0 0 0 0 0 0 0 0 0 0 0 0 0 0 0 0 0 0 0 0 0
0 0 0 0 0 0 0 0 0 0 0 0 0 0 0 0 0 0 0 0 0 0 0 0 0 0 0 0 0 0 0 0 0 0 0 0 0 0 0 0 0 0 0 0
0 0 0 0 0 0 0 0 0 0 0 0 0 0 0 0 0 0 0 0 0 0 0 0 0 0 0 0 0 0 0 0 0 0 0 0 0 0 0 0 0 0 0 0
0 0 0 0 0 0 0 0 0 0 0 0 0 0 0 0 0 0 0 0 0 0 0 0 0 0 0 0 0 0 0 0 0 0 0 0 0 0 0 0 0 0 0 0
0 0 0 0 0 0 0 0 0 0 0 0 0 0 0 0 0 0 0 0 0 0 0 0 0 0 0 0 0 0 0 0 0 0 0 0 0 0 0 0 0 0 0 0
0 0 0 0 0 0 0 0 0 0 0 0 0 0 0 0 0 1 1 1 0 0 0 0 0 0 0 0 0 0 0 0 0 0 0 0 0 0 0 0 0 0 0 0
0 0 0 0 0 0 0 0 0 0 0 0 0 1 1 1 1 1 1 1 0 0 1 1 1 0 0 0 0 0 0 0 0 0 0 0 0 0 0 0 0 0 0 0
0 0 0 0 0 0 0 0 0 0 0 0 1 1 1 1 1 1 1 1 0 0 1 1 1 1 0 0 0 0 1 1 0 0 0 0 0 0 0 0 0 0 0 0
0 0 0 0 0 0 0 0 0 0 0 0 0 1 1 0 0 0 0 0 0 1 1 1 1 1 1 0 0 0 1 1 1 0 0 0 0 0 0 0 0 0 0 0
0 0 0 0 0 0 0 0 0 0 0 0 0 0 0 0 0 0 0 0 0 0 1 1 1 1 0 0 0 0 0 0 0 0 0 0 0 0 0 0 0 0 0 0
0 0 0 0 0 0 0 0 0 0 0 0 0 0 0 0 0 0 0 0 0 0 0 1 1 0 0 0 0 0 0 0 0 0 0 0 0 0 0 0 0 0 0 0
0 0 0 0 0 0 0 0 0 0 0 0 0 0 0 0 0 0 0 0 0 0 0 0 0 0 0 0 0 0 0 0 0 0 0 0 0 0 0 0 0 0 0 0
0 0 0 0 0 0 0 0 0 0 0 0 0 0 0 0 0 0 0 0 0 0 0 0 0 0 0 0 0 0 0 0 0 0 0 0 0 0 0 0 0 0 0 0
0 0 0 0 0 0 0 0 0 0 0 0 0 0 0 0 0 0 0 0 0 0 0 0 0 0 0 0 0 0 0 0 0 0 0 0 0 0 0 0 0 0 0 0
0 0 0 0 0 0 0 0 0 0 0 0 0 0 0 0 0 0 0 0 0 0 0 0 0 0 0 0 0 0 0 0 0 0 0 0 0 0 0 0 0 0 0 0
Wind_Speed
4 3 6 9 9 10 8 10 13 15 10 2 2 3 5 6 8 10 9 9 9 7 5 6 9 10 10 10 11 11 12 11 10 7 7 6 5 4 4 5 6 6 6 6
2 8 13 10 9 10 11 12 12 11 7 1 1 1 1 4 6 10 12 11 10 8 7 8 8 9 9 11 11 11 12 12 10 8 6 5 5 4 4 4 5 6 6 6
10 9 7 11 12 12 13 10 9 8 5 4 2 4 3 1 2 5 8 10 11 12 12 11 9 8 10 11 12 12 11 11 9 8 6 5 4 3 2 3 3 4 5 5
9 13 13 12 13 11 13 13 9 6 2 3 1 2 5 2 1 1 3 6 9 9 9 11 10 9 10 10 10 10 10 9 9 9 8 9 7 5 5 4 4 4 5 6
8 6 9 13 16 12 12 11 6 3 1 2 4 2 5 2 1 2 2 5 7 7 9 10 10 9 9 9 9 9 9 8 9 9 9 8 6 4 4 4 5 4 4 5
11 10 7 10 13 11 9 3 5 5 5 2 4 2 5 3 4 3 1 4 6 7 8 9 8 7 7 7 8 9 9 8 8 9 8 8 8 7 7 6 6 4 3 3
9 12 12 10 10 9 3 3 4 5 5 5 3 2 6 6 5 3 3 4 7 8 9 10 10 9 8 9 9 9 10 8 8 9 8 8 9 9 9 7 6 5 3 3
6 9 8 7 10 9 6 9 8 5 5 5 2 3 6 5 4 3 2 4 7 9 10 10 11 10 10 10 9 9 10 9 9 9 8 7 8 7 6 6 6 6 4 4
7 9 7 7 8 9 6 5 10 8 3 1 3 4 6 3 3 2 1 3 5 8 10 10 10 10 9 9 9 10 10 9 9 8 8 7 8 7 7 7 6 5 4 5
11 6 9 7 3 3 9 8 6 6 4 2 2 3 5 5 4 2 4 5 5 7 9 10 10 10 9 9 8 8 9 9 8 8 8 7 7 7 8 7 7 7 6 6
8 7 7 4 1 2 0 2 5 5 6 7 4 7 8 9 7 6 6 6 7 9 10 10 9 9 8 8 8 8 8 7 7 7 7 7 6 6 7 7 7 7 6 7
6 7 5 6 4 1 3 3 6 5 3 4 5 7 5 6 6 7 6 6 7 8 8 9 9 9 9 8 8 8 8 8 8 7 7 7 6 6 7 7 7 7 7 7
3 7 2 6 7 7 4 3 3 5 4 3 3 5 2 2 2 4 6 6 7 8 8 8 8 9 9 9 8 8 8 8 7 7 8 7 7 7 7 6 6 6 6 6
4 5 7 7 6 2 1 2 3 5 3 1 4 4 3 4 4 5 6 8 8 8 9 10 9 8 8 8 8 8 8 7 8 7 8 8 7 7 7 6 6 6 6 6
6 4 2 2 1 0 0 1 2 2 4 4 5 5 7 9 8 7 6 8 9 9 9 11 11 9 8 8 8 8 8 7 8 8 8 7 7 6 6 6 6 6 6 6
5 3 3 3 4 4 3 3 2 1 0 2 3 2 4 3 3 4 4 7 8 10 10 10 11 11 11 11 11 9 9 8 8 8 8 7 7 7 7 6 6 7 6 5
2 3 3 2 3 4 2 2 0 2 2 1 3 3 1 5 5 5 4 5 8 9 9 10 10 10 10 11 11 10 9 8 8 8 8 7 7 7 7 8 8 7 7 7
4 3 3 1 3 2 8 3 3 6 6 4 3 2 4 5 4 3 2 4 5 6 7 7 8 8 7 7 8 8 8 9 9 9 8 8 9 8 8 8 9 8 7 8
5 7 4 4 2 4 5 4 1 4 4 5 4 5 5 5 6 4 3 2 4 4 5 6 6 6 6 7 8 9 9 9 9 9 9 9 9 10 9 9 9 9 9 9
5 5 5 4 3 4 4 6 2 7 3 3 4 5 3 3 3 1 1 3 4 4 4 5 6 7 6 6 8 10 9 9 9 8 8 9 9 10 11 10 10 10 10 11
5 4 3 4 4 4 3 6 5 5 3 2 3 3 3 1 2 3 3 4 5 5 5 6 7 6 5 6 9 9 8 8 7 8 9 10 10 11 11 11 10 11 12 12
1 1 0 2 3 5 4 4 4 3 2 1 2 3 4 4 5 5 5 6 6 6 7 7 7 7 5 7 10 11 9 8 9 11 11 11 10 10 11 12 11 11 12 12
1 3 3 3 4 3 2 3 2 3 3 1 2 2 5 5 5 6 6 6 6 7 7 6 8 9 7 7 9 12 10 10 12 13 12 12 12 11 11 11 11 10 9 9
2 1 1 1 1 1 3 3 3 4 3 3 3 4 4 6 6 7 7 7 7 8 8 8 10 11 10 9 9 10 10 11 14 14 12 11 12 11 10 8 7 8 8 8
2 0 1 1 1 2 3 3 3 4 4 5 5 5 6 8 8 8 8 8 8 8 8 8 10 12 12 11 11 11 10 13 15 14 13 12 11 11 11 10 8 7 6 7
2 3 3 4 3 2 3 2 1 3 3 4 7 7 7 8 10 10 9 8 9 10 9 11 11 12 12 12 12 11 10 13 14 13 11 10 9 9 10 10 10 14 11 13
Wind_Direction
229 185 229 231 221 226 255 274 280 281 282 268 206 203 204 176 149 153 154 155 160 172 157 151 153 154 154 155 160 164 160 158 152 151 151 150 155 157 156 165 165 159 157 154
276 245 235 235 246 253 261 268 274 285 292 294 181 252 233 174 171 168 163 163 159 155 151 158 158 158 160 162 163 161 162 162 162 160 155 150 148 157 161 160 161 163 160 157
219 242 236 234 247 256 263 255 256 268 303 2 39 348 331 296 137 151 164 162 161 165 167 168 165 165 164 166 168 165 165 165 162 153 138 128 117 114 128 148 161 171 162 157
243 247 251 255 255 244 258 256 254 271 314 303 14 278 299 298 357 124 164 164 166 168 171 167 163 163 169 167 160 157 160 161 159 152 149 153 157 161 174 168 165 162 159 157
242 236 231 242 250 246 240 248 250 259 138 17 360 109 283 330 320 294 219 179 171 173 174 165 161 164 166 160 158 158 159 160 158 157 158 158 157 159 154 151 151 154 157 161
252 267 254 243 261 256 250 292 352 36 66 3 275 177 270 264 235 257 268 192 182 182 170 161 157 155 162 162 162 161 163 164 162 161 163 164 161 160 157 160 162 160 154 157
274 272 260 257 271 282 255 98 15 349 2 262 265 157 242 252 238 205 217 203 189 186 170 162 162 168 172 171 168 165 166 169 169 168 170 170 168 166 169 168 168 162 159 166
232 272 252 227 214 223 224 149 164 200 226 262 308 223 248 256 261 238 213 188 184 177 171 168 171 174 176 174 170 169 172 173 174 175 177 174 171 168 171 172 167 170 173 178
204 250 262 254 233 186 199 195 173 147 169 169 282 285 295 273 313 359 76 140 172 175 172 171 172 174 176 175 176 176 174 175 179 179 175 173 173 171 172 171 168 169 172 174
182 243 281 286 316 230 181 171 108 120 152 217 272 267 250 261 255 196 171 171 175 174 172 173 175 175 176 175 174 175 176 180 181 177 176 173 172 171 169 165 168 168 170 167
173 191 278 340 309 256 96 130 126 132 153 153 205 255 223 210 205 194 190 185 181 173 172 176 176 173 169 165 167 174 175 173 175 173 170 166 167 164 160 163 168 167 166 166
178 155 232 258 268 219 136 157 137 146 225 163 165 256 257 204 194 185 188 187 172 169 166 167 168 163 163 164 168 174 175 174 173 168 163 163 162 160 160 165 166 163 163 168
129 121 129 332 346 5 52 59 109 129 115 132 148 258 283 172 193 193 178 174 167 162 157 154 155 161 165 166 167 170 172 170 165 161 160 159 160 161 163 162 159 154 151 153
106 105 146 180 213 238 36 8 69 97 111 156 189 210 256 220 211 202 179 168 165 161 160 159 160 164 166 167 167 168 170 166 161 160 160 162 165 167 163 152 147 146 145 145
78 97 131 169 222 107 29 37 64 103 171 175 206 193 220 212 197 188 172 158 150 152 163 167 167 165 166 169 172 171 170 168 165 158 159 165 161 154 149 147 144 139 136 141
53 84 58 18 16 32 14 349 2 6 141 179 149 226 261 192 137 130 157 158 156 162 165 167 167 169 174 179 178 173 170 171 165 162 162 156 150 146 145 145 139 134 134 129
46 86 77 326 342 43 331 268 132 19 344 143 158 221 170 117 135 151 158 155 163 169 165 165 166 172 180 184 176 172 170 161 157 156 155 154 149 147 146 142 130 130 128 117
135 106 122 128 56 220 246 258 111 87 46 56 91 95 109 119 111 93 132 147 146 157 158 163 163 168 175 174 168 161 155 152 155 159 160 156 149 143 139 134 131 128 116 108
147 138 126 124 159 270 298 336 50 105 43 19 78 80 80 94 79 37 13 104 133 151 155 157 153 148 152 156 160 151 149 150 153 157 156 152 147 140 133 127 124 117 109 101
48 105 123 134 153 214 260 312 337 97 71 352 88 103 97 79 90 258 355 69 89 92 112 127 130 121 137 151 149 145 149 148 154 153 146 140 136 133 128 127 120 112 108 105
12 32 114 159 187 241 291 317 36 95 209 276 106 121 111 105 173 167 107 80 83 90 99 112 121 126 139 144 136 132 135 139 139 131 127 125 123 123 123 118 114 114 111 106
131 72 206 144 178 238 323 38 90 178 207 107 97 106 108 111 111 113 98 93 91 96 97 108 115 117 115 122 125 121 120 120 115 113 112 112 113 115 113 112 111 112 112 107
147 182 196 192 205 245 15 101 128 131 117 106 108 124 127 124 127 122 105 98 90 93 96 103 111 102 89 93 113 116 116 115 111 104 102 100 96 96 103 109 112 111 111 111
324 17 100 11 303 19 28 41 48 71 91 97 106 121 127 126 124 120 115 105 93 90 94 102 107 102 92 87 90 100 106 108 107 104 99 96 96 92 88 90 99 109 113 116
243 311 95 250 267 20 15 18 45 60 72 79 89 101 120 125 121 119 114 111 104 98 94 97 100 102 101 98 94 95 101 104 101 100 99 97 94 95 87 79 72 86 85 114
213 189 188 218 220 183 250 289 54 92 99 105 104 92 98 114 118 112 109 106 105 101 97 96 96 99 99 98 96 95 99 105 107 106 104 103 102 100 100 98 81 58 76 89